This is the latest recevied weather packets stored in our database for station/object W5LND-10. If no packets are shown the sender has not sent any weather packets the latest 10 day(s).
| Time | Temp. | Humidity | Pressure | Rain* | Wind** | Luminosity | Snow |
|---|---|---|---|---|---|---|---|
| 1777740078 | 18.33° C | 49% | 1022.5 hPa | 0 mm | - | 1069 W/m² | - |
| 1777739778 | 17.78° C | 48% | 1022.7 hPa | 0 mm | - | 1078 W/m² | - |
| 1777739479 | 18.33° C | 49% | 1022.6 hPa | 0 mm | - | 1025 W/m² | - |
| 1777739178 | 18.33° C | 49% | 1022.6 hPa | 0 mm | - | 327 W/m² | - |
| 1777738879 | 18.33° C | 49% | 1022.7 hPa | 0 mm | - | 343 W/m² | - |
| 1777738579 | 18.33° C | 49% | 1022.6 hPa | 0 mm | - | 981 W/m² | - |
| 1777738279 | 17.78° C | 51% | 1022.6 hPa | 0 mm | - | 944 W/m² | - |
| 1777737978 | 17.78° C | 51% | 1022.6 hPa | 0 mm | - | 930 W/m² | - |
| 1777737679 | 17.78° C | 52% | 1022.6 hPa | 0 mm | - | 907 W/m² | - |
| 1777737379 | 17.78° C | 52% | 1022.6 hPa | 0 mm | - | 877 W/m² | - |
| 1777737079 | 17.22° C | 52% | 1022.6 hPa | 0 mm | - | 858 W/m² | - |
| 1777736779 | 17.22° C | 53% | 1022.6 hPa | 0 mm | - | 844 W/m² | - |
| 1777736479 | 17.22° C | 52% | 1022.7 hPa | 0 mm | - | 837 W/m² | - |
| 1777736179 | 17.22° C | 52% | 1022.7 hPa | 0 mm | - | 396 W/m² | - |
| 1777735879 | 17.22° C | 52% | 1022.6 hPa | 0 mm | - | 795 W/m² | - |
| 1777735579 | 17.22° C | 52% | 1022.7 hPa | 0 mm | - | 773 W/m² | - |
| 1777735279 | 17.22° C | 54% | 1022.8 hPa | 0 mm | - | 759 W/m² | - |
| 1777734983 | 16.67° C | 54% | 1022.7 hPa | 0 mm | - | 742 W/m² | - |
| 1777734679 | 16.67° C | 54% | 1022.7 hPa | 0 mm | - | 726 W/m² | - |
| 1777734379 | 16.67° C | 55% | 1022.7 hPa | 0 mm | - | 708 W/m² | - |
| 1777734079 | 16.67° C | 56% | 1022.7 hPa | 0 mm | - | 694 W/m² | - |
| 1777733779 | 16.67° C | 56% | 1022.7 hPa | 0 mm | - | 675 W/m² | - |
| 1777733479 | 16.11° C | 59% | 1022.6 hPa | 0 mm | - | 654 W/m² | - |
| 1777733179 | 16.11° C | 59% | 1022.7 hPa | 0 mm | - | 638 W/m² | - |
| 1777732879 | 16.11° C | 61% | 1022.6 hPa | 0 mm | - | 617 W/m² | - |
* Rain latest hour (hover to see other rain measurements)
** Current wind speed in m/s (hover to see current wind gust speed)